TimeMST,TemperatureF,Dew PointF,Humidity,Sea Level PressureIn,VisibilityMPH,Wind Direction,Wind SpeedMPH,Gust SpeedMPH,PrecipitationIn,Events,Conditions,WindDirDegrees,DateUTC
12:15 AM,42.8,32.0,66,30.19,10.0,WNW,6.9,-,N/A,,Clear,290,2013-12-02 07:15:00
12:35 AM,42.8,32.0,66,30.19,10.0,West,6.9,-,N/A,,Clear,280,2013-12-02 07:35:00
12:55 AM,42.8,30.2,61,30.18,10.0,West,6.9,-,N/A,,Clear,280,2013-12-02 07:55:00
1:15 AM,42.8,30.2,61,30.18,10.0,WNW,8.1,-,N/A,,Clear,290,2013-12-02 08:15:00
1:35 AM,44.6,30.2,57,30.17,10.0,West,9.2,-,N/A,,Clear,280,2013-12-02 08:35:00
1:55 AM,42.8,28.4,57,30.17,10.0,West,8.1,-,N/A,,Clear,280,2013-12-02 08:55:00
2:15 AM,42.8,28.4,57,30.17,10.0,West,6.9,-,N/A,,Clear,280,2013-12-02 09:15:00
2:35 AM,41.0,30.2,65,30.16,10.0,West,8.1,-,N/A,,Clear,280,2013-12-02 09:35:00
2:55 AM,42.8,28.4,57,30.15,10.0,West,9.2,-,N/A,,Clear,280,2013-12-02 09:55:00
3:15 AM,41.0,28.4,61,30.15,10.0,West,4.6,-,N/A,,Clear,260,2013-12-02 10:15:00
3:35 AM,39.2,28.4,65,30.15,10.0,WSW,5.8,-,N/A,,Clear,250,2013-12-02 10:35:00
3:55 AM,39.2,30.2,70,30.14,10.0,West,4.6,-,N/A,,Clear,260,2013-12-02 10:55:00
4:15 AM,37.4,30.2,75,30.14,10.0,West,5.8,-,N/A,,Clear,280,2013-12-02 11:15:00
4:35 AM,37.4,30.2,75,30.14,10.0,West,4.6,-,N/A,,Clear,270,2013-12-02 11:35:00
4:55 AM,37.4,30.2,75,30.12,10.0,WNW,6.9,-,N/A,,Clear,290,2013-12-02 11:55:00
5:15 AM,35.6,28.4,75,30.13,10.0,West,5.8,-,N/A,,Clear,280,2013-12-02 12:15:00
5:35 AM,33.8,28.4,81,30.12,10.0,West,6.9,-,N/A,,Clear,280,2013-12-02 12:35:00
5:55 AM,33.8,28.4,81,30.13,10.0,WNW,5.8,-,N/A,,Clear,290,2013-12-02 12:55:00
6:15 AM,32.0,28.4,87,30.14,10.0,West,8.1,-,N/A,,Clear,270,2013-12-02 13:15:00
6:35 AM,35.6,30.2,81,30.14,10.0,WSW,9.2,-,N/A,,Clear,250,2013-12-02 13:35:00
6:55 AM,35.6,30.2,81,30.14,10.0,West,9.2,-,N/A,,Clear,260,2013-12-02 13:55:00
7:15 AM,35.6,28.4,75,30.14,10.0,West,10.4,-,N/A,,Clear,260,2013-12-02 14:15:00
7:35 AM,35.6,28.4,75,30.14,10.0,WNW,5.8,-,N/A,,Clear,290,2013-12-02 14:35:00
7:55 AM,39.2,28.4,65,30.14,10.0,West,9.2,-,N/A,,Clear,280,2013-12-02 14:55:00
8:15 AM,41.0,28.4,61,30.14,10.0,West,8.1,-,N/A,,Clear,270,2013-12-02 15:15:00
8:35 AM,44.6,28.4,53,30.14,10.0,West,6.9,-,N/A,,Clear,280,2013-12-02 15:35:00
8:55 AM,46.4,28.4,50,30.15,10.0,West,8.1,-,N/A,,Clear,270,2013-12-02 15:55:00
9:15 AM,46.4,28.4,50,30.14,10.0,West,8.1,-,N/A,,Clear,280,2013-12-02 16:15:00
9:35 AM,48.2,28.4,46,30.15,10.0,West,8.1,-,N/A,,Clear,280,2013-12-02 16:35:00
9:55 AM,50.0,28.4,43,30.15,10.0,West,5.8,-,N/A,,Clear,270,2013-12-02 16:55:00
10:15 AM,51.8,26.6,38,30.15,10.0,WNW,6.9,-,N/A,,Clear,290,2013-12-02 17:15:00
10:35 AM,51.8,26.6,38,30.14,10.0,WNW,5.8,-,N/A,,Clear,290,2013-12-02 17:35:00
10:55 AM,53.6,26.6,35,30.13,10.0,NW,6.9,-,N/A,,Clear,310,2013-12-02 17:55:00
11:15 AM,53.6,28.4,38,30.13,10.0,West,8.1,-,N/A,,Clear,280,2013-12-02 18:15:00
11:35 AM,55.4,28.4,36,30.12,10.0,NW,6.9,-,N/A,,Clear,310,2013-12-02 18:35:00
11:55 AM,57.2,28.4,33,30.11,10.0,NW,6.9,-,N/A,,Clear,320,2013-12-02 18:55:00
12:15 PM,59.0,28.4,31,30.10,10.0,WNW,6.9,-,N/A,,Clear,290,2013-12-02 19:15:00
12:35 PM,59.0,26.6,29,30.08,10.0,NW,9.2,-,N/A,,Clear,310,2013-12-02 19:35:00
1:15 PM,60.8,26.6,27,30.06,10.0,WNW,6.9,-,N/A,,Clear,300,2013-12-02 20:15:00
1:55 PM,62.6,23.0,22,30.03,10.0,WNW,10.4,-,N/A,,Clear,290,2013-12-02 20:55:00
2:15 PM,64.4,23.0,21,30.03,10.0,WNW,8.1,-,N/A,,Clear,290,2013-12-02 21:15:00
2:35 PM,66.2,17.6,15,30.01,10.0,WNW,12.7,-,N/A,,Clear,290,2013-12-02 21:35:00
2:55 PM,64.4,17.6,16,30.00,10.0,WNW,9.2,-,N/A,,Clear,300,2013-12-02 21:55:00
3:15 PM,66.2,14.0,13,29.99,10.0,WNW,11.5,17.3,N/A,,Clear,290,2013-12-02 22:15:00
3:35 PM,66.2,14.0,13,29.99,10.0,WNW,12.7,17.3,N/A,,Clear,290,2013-12-02 22:35:00
3:55 PM,64.4,12.2,13,29.98,10.0,NW,9.2,-,N/A,,Clear,310,2013-12-02 22:55:00
4:15 PM,64.4,12.2,13,29.98,10.0,West,10.4,-,N/A,,Clear,280,2013-12-02 23:15:00
4:35 PM,64.4,12.2,13,29.98,10.0,WNW,9.2,-,N/A,,Clear,290,2013-12-02 23:35:00
4:55 PM,62.6,12.2,14,29.98,10.0,NW,9.2,-,N/A,,Clear,310,2013-12-02 23:55:00
5:15 PM,59.0,12.2,16,29.99,10.0,NW,5.8,-,N/A,,Clear,320,2013-12-03 00:15:00
5:35 PM,55.4,14.0,20,29.99,10.0,Calm,Calm,-,N/A,,Clear,0,2013-12-03 00:35:00
5:55 PM,55.4,14.0,20,29.98,10.0,Calm,Calm,-,N/A,,Clear,0,2013-12-03 00:55:00
6:15 PM,53.6,15.8,22,29.98,10.0,NNW,3.5,-,N/A,,Clear,340,2013-12-03 01:15:00
6:35 PM,51.8,15.8,24,29.99,10.0,North,6.9,-,N/A,,Clear,350,2013-12-03 01:35:00
6:55 PM,50.0,15.8,26,29.99,10.0,Calm,Calm,-,N/A,,Clear,0,2013-12-03 01:55:00
7:15 PM,46.4,15.8,29,29.99,10.0,Calm,Calm,-,N/A,,Clear,0,2013-12-03 02:15:00
7:35 PM,46.4,17.6,32,30.00,10.0,Calm,Calm,-,N/A,,Clear,0,2013-12-03 02:35:00
7:55 PM,44.6,15.8,31,30.00,10.0,Calm,Calm,-,N/A,,Clear,0,2013-12-03 02:55:00
8:15 PM,42.8,17.6,36,30.00,10.0,WNW,3.5,-,N/A,,Clear,290,2013-12-03 03:15:00
8:35 PM,44.6,17.6,34,29.99,10.0,WSW,3.5,-,N/A,,Clear,250,2013-12-03 03:35:00
8:55 PM,44.6,17.6,34,29.99,10.0,Calm,Calm,-,N/A,,Clear,0,2013-12-03 03:55:00
9:15 PM,42.8,17.6,36,29.99,10.0,Calm,Calm,-,N/A,,Clear,0,2013-12-03 04:15:00
9:35 PM,44.6,17.6,34,29.99,10.0,West,3.5,-,N/A,,Clear,270,2013-12-03 04:35:00
9:55 PM,44.6,19.4,37,29.98,10.0,Calm,Calm,-,N/A,,Clear,0,2013-12-03 04:55:00
10:15 PM,42.8,19.4,39,29.98,10.0,South,4.6,-,N/A,,Clear,190,2013-12-03 05:15:00
10:35 PM,41.0,21.2,45,29.98,10.0,NW,3.5,-,N/A,,Clear,310,2013-12-03 05:35:00
10:55 PM,39.2,21.2,49,29.98,10.0,Calm,Calm,-,N/A,,Clear,0,2013-12-03 05:55:00
11:15 PM,41.0,21.2,45,29.97,10.0,Calm,Calm,-,N/A,,Clear,0,2013-12-03 06:15:00
11:35 PM,39.2,21.2,49,29.95,10.0,WSW,3.5,-,N/A,,Clear,240,2013-12-03 06:35:00
11:55 PM,39.2,21.2,49,29.96,10.0,West,4.6,-,N/A,,Clear,270,2013-12-03 06:55:00